• en France
  • Liste des pays
  • À 7 jours
  • Température de l'eau
  • Carte satellitaire
  • Carte météo
  • Widgets météo
  • user-avatar
    Se connecter

    Météo par heure à Filippkovo

    Ce jour, 13 Novembre, Mardi

    Heure Température Précipitation Vent Pression Humidité
    00:00 -2°C° 0 mm 6 m/s 765 mmHg 72%
    01:00 -2°C° 0 mm 6 m/s 765 mmHg 72%
    02:00 -2°C° 0 mm 6 m/s 765 mmHg 71%
    03:00 -2°C° 0.4 mm 6 m/s 764 mmHg 74%
    04:00 -2°C° 0.4 mm 6 m/s 764 mmHg 78%
    05:00 -3°C° 0.4 mm 6 m/s 763 mmHg 81%
    06:00 -2°C° 1 mm 6 m/s 763 mmHg 81%
    07:00 -2°C° 1 mm 6 m/s 762 mmHg 82%
    08:00 -2°C° 1 mm 6 m/s 762 mmHg 83%
    09:00 -2°C° 0.1 mm 6 m/s 761 mmHg 80%
    10:00 -1°C° 0.1 mm 6 m/s 761 mmHg 77%
    11:00 -1°C° 0.1 mm 6 m/s 761 mmHg 74%
    12:00 +1°C° 0.1 mm 6 m/s 760 mmHg 74%
    13:00 +1°C° 0.1 mm 6 m/s 760 mmHg 74%
    14:00 +1°C° 0.1 mm 6 m/s 759 mmHg 74%
    15:00 +1°C° 0.7 mm 6 m/s 759 mmHg 75%
    16:00 +1°C° 0.7 mm 6 m/s 759 mmHg 77%
    17:00 +1°C° 0.7 mm 6 m/s 759 mmHg 79%
    18:00 +1°C° 1.1 mm 6 m/s 758 mmHg 81%
    19:00 +1°C° 1.1 mm 6 m/s 758 mmHg 83%
    20:00 +1°C° 1.1 mm 5 m/s 758 mmHg 85%
    21:00 +1°C° 0.3 mm 5 m/s 758 mmHg 86%
    22:00 +1°C° 0.3 mm 5 m/s 757 mmHg 86%
    23:00 +1°C° 0.3 mm 5 m/s 757 mmHg 86%

    Demain, 14 Novembre, Mercredi

    Heure Température Précipitation Vent Pression Humidité
    00:00 +1°C° 1.1 mm 4 m/s 757 mmHg 87%
    01:00 +1°C° 1.1 mm 4 m/s 756 mmHg 88%
    02:00 0°C° 1.1 mm 4 m/s 756 mmHg 89%
    03:00 0°C° 1.5 mm 4 m/s 756 mmHg 90%
    04:00 +1°C° 1.5 mm 3 m/s 755 mmHg 90%
    05:00 +1°C° 1.5 mm 3 m/s 755 mmHg 90%
    06:00 +1°C° 0.7 mm 3 m/s 755 mmHg 91%
    07:00 +1°C° 0.7 mm 3 m/s 755 mmHg 91%
    08:00 +2°C° 0.7 mm 2 m/s 756 mmHg 92%
    09:00 +2°C° 0.3 mm 2 m/s 756 mmHg 92%
    10:00 +2°C° 0.3 mm 2 m/s 756 mmHg 92%
    11:00 +2°C° 0.3 mm 2 m/s 756 mmHg 92%
    12:00 +2°C° 0.3 mm 2 m/s 757 mmHg 92%
    13:00 +3°C° 0.3 mm 1 m/s 757 mmHg 93%
    14:00 +3°C° 0.3 mm 1 m/s 757 mmHg 93%
    15:00 +3°C° 0.2 mm 1 m/s 758 mmHg 94%
    16:00 +3°C° 0.2 mm 1 m/s 758 mmHg 95%
    17:00 +3°C° 0.2 mm 1 m/s 759 mmHg 95%
    18:00 +3°C° 0.1 mm 1 m/s 759 mmHg 95%
    19:00 +3°C° 0.1 mm 1 m/s 760 mmHg 96%
    20:00 +2°C° 0.1 mm 0 m/s 760 mmHg 96%
    21:00 +2°C° 0 mm 0 m/s 760 mmHg 96%
    22:00 +2°C° 0 mm 0 m/s 761 mmHg 96%
    23:00 +2°C° 0 mm 0 m/s 761 mmHg 96%

    Après-demain, 15 Novembre, Jeudi

    Heure Température Précipitation Vent Pression Humidité
    00:00 +2°C° 0 mm 0 m/s 762 mmHg 96%
    01:00 +2°C° 0 mm 0 m/s 762 mmHg 96%
    02:00 +2°C° 0 mm 0 m/s 763 mmHg 96%
    03:00 +2°C° 0 mm 0 m/s 763 mmHg 96%
    04:00 +3°C° 0 mm 1 m/s 764 mmHg 96%
    05:00 +3°C° 0 mm 1 m/s 764 mmHg 96%
    06:00 +3°C° 0 mm 1 m/s 764 mmHg 95%
    07:00 +3°C° 0 mm 1 m/s 765 mmHg 95%
    08:00 +3°C° 0 mm 1 m/s 765 mmHg 95%
    09:00 +4°C° 0 mm 1 m/s 766 mmHg 94%
    10:00 +4°C° 0 mm 1 m/s 766 mmHg 93%
    11:00 +5°C° 0 mm 1 m/s 766 mmHg 92%
    12:00 +5°C° 0 mm 1 m/s 767 mmHg 92%
    13:00 +5°C° 0 mm 1 m/s 767 mmHg 91%
    14:00 +5°C° 0 mm 1 m/s 767 mmHg 91%
    15:00 +5°C° 0 mm 1 m/s 767 mmHg 92%
    16:00 +4°C° 0 mm 1 m/s 768 mmHg 93%
    17:00 +3°C° 0 mm 1 m/s 768 mmHg 94%
    18:00 +3°C° 0 mm 1 m/s 768 mmHg 94%
    19:00 +2°C° 0 mm 2 m/s 769 mmHg 94%
    20:00 +2°C° 0 mm 2 m/s 769 mmHg 94%
    21:00 +2°C° 0 mm 2 m/s 769 mmHg 94%
    22:00 +2°C° 0 mm 2 m/s 769 mmHg 94%
    23:00 +2°C° 0 mm 2 m/s 770 mmHg 94%

    16 Novembre, Vendredi

    Heure Température Précipitation Vent Pression Humidité
    00:00 +2°C° 0 mm 2 m/s 770 mmHg 94%
    01:00 +1°C° 0 mm 2 m/s 770 mmHg 94%
    02:00 +1°C° 0 mm 2 m/s 770 mmHg 94%
    03:00 +1°C° 0 mm 2 m/s 770 mmHg 94%
    04:00 +1°C° 0 mm 2 m/s 770 mmHg 94%
    05:00 0°C° 0 mm 3 m/s 770 mmHg 94%
    06:00 +1°C° 0 mm 3 m/s 770 mmHg 93%
    07:00 +1°C° 0 mm 3 m/s 770 mmHg 93%
    08:00 +1°C° 0 mm 3 m/s 770 mmHg 92%
    09:00 +2°C° 0.1 mm 3 m/s 770 mmHg 92%
    10:00 +2°C° 0.1 mm 3 m/s 770 mmHg 91%
    11:00 +2°C° 0.1 mm 3 m/s 770 mmHg 91%
    12:00 +3°C° 0.2 mm 3 m/s 770 mmHg 92%
    13:00 +3°C° 0.2 mm 3 m/s 770 mmHg 92%
    14:00 +3°C° 0.2 mm 3 m/s 770 mmHg 93%
    15:00 +3°C° 0.1 mm 3 m/s 770 mmHg 94%
    16:00 +3°C° 0.1 mm 3 m/s 770 mmHg 94%
    17:00 +3°C° 0.1 mm 3 m/s 770 mmHg 95%
    18:00 +3°C° 0 mm 3 m/s 770 mmHg 95%
    19:00 +4°C° 0 mm 2 m/s 770 mmHg 96%
    20:00 +4°C° 0 mm 2 m/s 770 mmHg 96%
    21:00 +4°C° 0 mm 2 m/s 770 mmHg 96%
    22:00 +4°C° 0 mm 2 m/s 770 mmHg 96%
    23:00 +4°C° 0 mm 2 m/s 770 mmHg 97%

    17 Novembre, Samedi

    Heure Température Précipitation Vent Pression Humidité
    00:00 +4°C° 0 mm 2 m/s 770 mmHg 97%
    01:00 +5°C° 0 mm 2 m/s 770 mmHg 97%
    02:00 +5°C° 0 mm 2 m/s 770 mmHg 97%
    03:00 +4°C° 0 mm 3 m/s 769 mmHg 96%
    04:00 +4°C° 0 mm 3 m/s 769 mmHg 95%
    05:00 +4°C° 0 mm 3 m/s 769 mmHg 95%
    06:00 +4°C° 0 mm 3 m/s 769 mmHg 94%
    07:00 +4°C° 0 mm 3 m/s 768 mmHg 94%
    08:00 +4°C° 0 mm 3 m/s 768 mmHg 93%
    09:00 +4°C° 0 mm 3 m/s 768 mmHg 92%
    10:00 +5°C° 0 mm 4 m/s 768 mmHg 91%
    11:00 +5°C° 0 mm 4 m/s 767 mmHg 90%
    12:00 +5°C° 0 mm 4 m/s 767 mmHg 89%
    13:00 +5°C° 0 mm 4 m/s 766 mmHg 88%
    14:00 +5°C° 0 mm 4 m/s 766 mmHg 87%
    15:00 +5°C° 0 mm 4 m/s 766 mmHg 88%
    16:00 +5°C° 0 mm 3 m/s 765 mmHg 89%
    17:00 +5°C° 0 mm 3 m/s 765 mmHg 89%
    18:00 +5°C° 0 mm 3 m/s 764 mmHg 89%
    19:00 +5°C° 0 mm 3 m/s 764 mmHg 89%
    20:00 +4°C° 0 mm 4 m/s 763 mmHg 89%
    21:00 +4°C° 0 mm 4 m/s 763 mmHg 89%
    22:00 +4°C° 0 mm 4 m/s 762 mmHg 88%
    23:00 +4°C° 0 mm 4 m/s 762 mmHg 87%

    18 Novembre, Dimanche

    Heure Température Précipitation Vent Pression Humidité
    00:00 +4°C° 0 mm 4 m/s 761 mmHg 87%
    01:00 +4°C° 0 mm 4 m/s 761 mmHg 86%
    02:00 +4°C° 0 mm 4 m/s 761 mmHg 86%
    03:00 +4°C° 0 mm 4 m/s 760 mmHg 85%
    04:00 +4°C° 0 mm 4 m/s 760 mmHg 83%
    05:00 +2°C° 0 mm 5 m/s 759 mmHg 82%
    06:00 +2°C° 0.1 mm 5 m/s 759 mmHg 81%
    07:00 +3°C° 0.1 mm 4 m/s 759 mmHg 81%
    08:00 +3°C° 0.1 mm 4 m/s 758 mmHg 80%
    09:00 +3°C° 0.2 mm 5 m/s 758 mmHg 79%
    10:00 +3°C° 0.2 mm 5 m/s 758 mmHg 78%
    11:00 +4°C° 0.2 mm 6 m/s 758 mmHg 78%
    12:00 +4°C° 0.3 mm 6 m/s 758 mmHg 78%
    13:00 +4°C° 0.3 mm 6 m/s 758 mmHg 78%
    14:00 +4°C° 0.3 mm 6 m/s 758 mmHg 77%
    15:00 +4°C° 0.1 mm 6 m/s 759 mmHg 77%
    16:00 +4°C° 0.1 mm 6 m/s 759 mmHg 77%
    17:00 +5°C° 0.1 mm 5 m/s 759 mmHg 77%
    18:00 +5°C° 0.1 mm 5 m/s 760 mmHg 78%
    19:00 +3°C° 0.1 mm 5 m/s 760 mmHg 78%
    20:00 +3°C° 0.1 mm 5 m/s 761 mmHg 79%
    21:00 +3°C° 0.1 mm 5 m/s 761 mmHg 79%
    22:00 +3°C° 0.1 mm 5 m/s 762 mmHg 79%
    23:00 +3°C° 0.1 mm 5 m/s 762 mmHg 79%
    Voir plus